03.05.2024;06:00;12
03.05.2024;05:00;7
03.05.2024;04:00;4
03.05.2024;03:00;3
03.05.2024;02:00;3
03.05.2024;01:00;4
03.05.2024;00:00;5
02.05.2024;23:00;13
02.05.2024;22:00;8
02.05.2024;21:00;9
02.05.2024;20:00;44
02.05.2024;19:00;51
02.05.2024;18:00;44
02.05.2024;17:00;43
02.05.2024;16:00;32
02.05.2024;15:00;44
02.05.2024;14:00;43
02.05.2024;13:00;41
02.05.2024;12:00;34
02.05.2024;11:00;35
02.05.2024;10:00;37
02.05.2024;09:00;59
02.05.2024;08:00;64
02.05.2024;07:00;56
02.05.2024;06:00;27
02.05.2024;05:00;13
02.05.2024;04:00;8
02.05.2024;03:00;7
02.05.2024;02:00;7
02.05.2024;01:00;11
02.05.2024;00:00;19
01.05.2024;23:00;22
01.05.2024;22:00;23
01.05.2024;21:00;31
01.05.2024;20:00;19
01.05.2024;19:00;17
01.05.2024;18:00;19
01.05.2024;17:00;17
01.05.2024;16:00;15
01.05.2024;15:00;14
01.05.2024;14:00;16
01.05.2024;13:00;20
01.05.2024;12:00;22
01.05.2024;11:00;14
01.05.2024;10:00;15
01.05.2024;09:00;11
01.05.2024;08:00;23
01.05.2024;07:00;24
